| time (UTC) | temp F | wind direction | speed MPH | gust MPH | rain 1hr in | rain 24hr in | rain mn in | humidity % | barometer mb |
| 20260504045731 | 48 | 220 | 0.0 | 0.0 | 0.00 | 0.00 | 0.00 | 85 | 1017.9 |
| 20260504045152 | 48 | 225 | 0.0 | 0.0 | 0.00 | 0.00 | 0.00 | 89 | 1017.9 |
| 20260504044536 | 48 | 227 | 0.0 | 0.0 | 0.00 | 0.00 | 0.00 | 89 | 1017.9 |
| 20260504043915 | 48 | 221 | 0.0 | 0.0 | 0.00 | 0.00 | 0.00 | 90 | 1017.9 |
| 20260504042719 | 48 | 216 | 0.0 | 0.0 | 0.00 | 0.00 | 0.00 | 90 | 1018.2 |
| 20260504042142 | 48 | 240 | 0.0 | 0.0 | 0.00 | 0.00 | 0.00 | 90 | 1018.2 |
| 20260504041542 | 48 | 225 | 0.0 | 0.0 | 0.00 | 0.00 | 0.00 | 91 | 1018.2 |
| 20260504040949 | 48 | 223 | 0.0 | 0.0 | 0.00 | 0.00 | 0.00 | 90 | 1017.9 |
| 20260504035738 | 48 | 220 | 0.0 | 0.0 | 0.00 | 0.00 | 0.00 | 87 | 1017.9 |
| 20260504035142 | 48 | 236 | 0.0 | 0.0 | 0.00 | 0.00 | 0.00 | 87 | 1017.9 |
| 20260504033953 | 48 | 154 | 0.0 | 0.0 | 0.00 | 0.00 | 0.00 | 86 | 1018.2 |
| 20260504033342 | 48 | 209 | 0.0 | 0.0 | 0.00 | 0.00 | 0.00 | 86 | 1018.2 |
| 20260504032713 | 48 | 165 | 0.0 | 0.0 | 0.00 | 0.00 | 0.00 | 85 | 1017.9 |
| 20260504032125 | 48 | 228 | 0.0 | 0.0 | 0.00 | 0.00 | 0.00 | 84 | 1018.2 |
| 20260504031536 | 48 | 48 | 0.0 | 0.0 | 0.00 | 0.00 | 0.00 | 84 | 1017.9 |
| 20260504030952 | 48 | 224 | 0.0 | 0.0 | 0.00 | 0.00 | 0.00 | 85 | 1017.9 |
| 20260504030354 | 48 | 233 | 0.0 | 0.0 | 0.00 | 0.00 | 0.00 | 83 | 1017.9 |
| 20260504025115 | 48 | 224 | 0.0 | 0.0 | 0.00 | 0.00 | 0.00 | 82 | 1017.9 |
| 20260504024555 | 48 | 224 | 0.0 | 0.0 | 0.00 | 0.00 | 0.00 | 83 | 1017.9 |
| 20260504023317 | 48 | 224 | 0.0 | 0.0 | 0.00 | 0.00 | 0.00 | 82 | 1017.9 |
| 20260504022747 | 47 | 234 | 0.0 | 0.0 | 0.00 | 0.00 | 0.00 | 81 | 1017.6 |
| 20260504021538 | 47 | 220 | 0.0 | 0.0 | 0.00 | 0.00 | 0.00 | 80 | 1017.6 |
| 20260504020353 | 47 | 213 | 0.0 | 0.0 | 0.00 | 0.00 | 0.00 | 77 | 1017.6 |
| 20260504015734 | 46 | 216 | 0.0 | 0.0 | 0.00 | 0.00 | 0.00 | 78 | 1017.6 |
| 20260504015121 | 46 | 214 | 0.0 | 0.0 | 0.00 | 0.00 | 0.00 | 78 | 1017.6 |
| 20260504014530 | 46 | 216 | 0.0 | 0.0 | 0.00 | 0.00 | 0.00 | 81 | 1017.6 |
| 20260504013925 | 46 | 217 | 0.0 | 0.0 | 0.00 | 0.00 | 0.00 | 79 | 1017.6 |
| 20260504013334 | 46 | 214 | 0.0 | 0.0 | 0.00 | 0.00 | 0.00 | 81 | 1017.6 |
| 20260504012735 | 46 | 216 | 0.0 | 0.0 | 0.00 | 0.00 | 0.00 | 81 | 1017.6 |
| 20260504011522 | 48 | 225 | 0.0 | 0.0 | 0.00 | 0.00 | 0.00 | 81 | 1017.9 |
| 20260504010939 | 48 | 219 | 0.0 | 0.0 | 0.00 | 0.00 | 0.00 | 80 | 1017.9 |
| 20260504010354 | 49 | 217 | 0.0 | 0.0 | 0.00 | 0.00 | 0.00 | 78 | 1017.9 |
| 20260504005728 | 49 | 221 | 0.0 | 0.0 | 0.00 | 0.00 | 0.00 | 78 | 1017.6 |
| 20260504004531 | 50 | 223 | 0.0 | 0.0 | 0.00 | 0.00 | 0.00 | 75 | 1017.6 |
| 20260504003953 | 50 | 228 | 0.0 | 0.0 | 0.00 | 0.00 | 0.00 | 74 | 1017.6 |
| 20260504003337 | 51 | 224 | 0.0 | 0.0 | 0.00 | 0.00 | 0.00 | 74 | 1017.6 |
| 20260504002742 | 52 | 225 | 0.0 | 0.0 | 0.00 | 0.00 | 0.00 | 74 | 1017.2 |
| 20260504002127 | 53 | 226 | 0.0 | 0.0 | 0.00 | 0.00 | 0.00 | 71 | 1017.6 |
| 20260504001533 | 54 | 229 | 0.0 | 0.0 | 0.00 | 0.00 | 0.00 | 66 | 1017.9 |
| 20260504000928 | 54 | 229 | 0.0 | 0.0 | 0.00 | 0.00 | 0.00 | 66 | 1017.6 |
| 20260504000328 | 55 | 232 | 0.0 | 0.0 | 0.00 | 0.00 | 0.00 | 63 | 1017.6 |
| 20260503234521 | 58 | 228 | 0.0 | 0.0 | 0.00 | 0.00 | 0.00 | 63 | 1017.6 |
| 20260503231524 | 64 | 316 | 0.0 | 0.0 | 0.00 | 0.00 | 0.00 | 45 | 1017.9 |
| 20260503230953 | 64 | 265 | 0.0 | 0.0 | 0.00 | 0.00 | 0.00 | 45 | 1017.9 |
| 20260503230351 | 64 | 239 | 0.0 | 0.0 | 0.00 | 0.00 | 0.00 | 39 | 1017.6 |
| 20260503225724 | 65 | 258 | 0.0 | 0.0 | 0.00 | 0.00 | 0.00 | 39 | 1017.9 |
| 20260503225148 | 65 | 232 | 0.0 | 0.0 | 0.00 | 0.00 | 0.00 | 36 | 1017.9 |
| 20260503224527 | 65 | 219 | 0.0 | 0.0 | 0.00 | 0.00 | 0.00 | 34 | 1017.9 |
| 20260503223912 | 65 | 252 | 4.0 | 5.0 | 0.00 | 0.00 | 0.00 | 36 | 1017.9 |
| 20260503223351 | 65 | 110 | 6.0 | 7.0 | 0.00 | 0.00 | 0.00 | 33 | 1017.9 |
| 20260503222727 | 65 | 285 | 0.0 | 0.0 | 0.00 | 0.00 | 0.00 | 32 | 1017.9 |
| 20260503222144 | 65 | 186 | 0.0 | 0.0 | 0.00 | 0.00 | 0.00 | 33 | 1017.9 |
| 20260503221527 | 65 | 277 | 0.0 | 0.0 | 0.00 | 0.00 | 0.00 | 35 | 1017.9 |
| 20260503220909 | 66 | 338 | 5.0 | 7.0 | 0.00 | 0.00 | 0.00 | 33 | 1017.9 |
| 20260503220333 | 66 | 185 | 4.0 | 7.0 | 0.00 | 0.00 | 0.00 | 32 | 1017.9 |
| 20260503215723 | 65 | 257 | 2.0 | 5.0 | 0.00 | 0.00 | 0.00 | 35 | 1017.9 |
| 20260503215141 | 65 | 312 | 4.0 | 7.0 | 0.00 | 0.00 | 0.00 | 34 | 1018.2 |
| 20260503214519 | 65 | 78 | 6.0 | 17.0 | 0.00 | 0.00 | 0.00 | 35 | 1017.9 |
| 20260503213944 | 65 | 341 | 3.0 | 5.0 | 0.00 | 0.00 | 0.00 | 33 | 1018.2 |
| 20260503213328 | 65 | 276 | 2.0 | 5.0 | 0.00 | 0.00 | 0.00 | 34 | 1018.2 |
| 20260503212750 | 65 | 256 | 0.0 | 2.0 | 0.00 | 0.00 | 0.00 | 35 | 1017.9 |
| 20260503212128 | 65 | 303 | 4.0 | 7.0 | 0.00 | 0.00 | 0.00 | 35 | 1018.2 |
| 20260503211543 | 65 | 183 | 2.0 | 2.0 | 0.00 | 0.00 | 0.00 | 32 | 1017.9 |
| 20260503210933 | 65 | 299 | 2.0 | 5.0 | 0.00 | 0.00 | 0.00 | 32 | 1018.2 |
| 20260503210349 | 65 | 1 | 7.0 | 10.0 | 0.00 | 0.00 | 0.00 | 32 | 1018.2 |
| 20260503205719 | 65 | 327 | 6.0 | 7.0 | 0.00 | 0.00 | 0.00 | 31 | 1018.2 |
| 20260503203914 | 64 | 147 | 4.0 | 5.0 | 0.00 | 0.00 | 0.00 | 33 | 1018.6 |
| 20260503203343 | 64 | 225 | 0.0 | 0.0 | 0.00 | 0.00 | 0.00 | 32 | 1018.6 |
| 20260503202733 | 65 | 304 | 1.0 | 2.0 | 0.00 | 0.00 | 0.00 | 35 | 1018.9 |
| 20260503202127 | 65 | 46 | 7.0 | 10.0 | 0.00 | 0.00 | 0.00 | 33 | 1018.9 |
| 20260503201509 | 64 | 225 | 0.0 | 2.0 | 0.00 | 0.00 | 0.00 | 31 | 1019.3 |
| 20260503200953 | 64 | 308 | 4.0 | 7.0 | 0.00 | 0.00 | 0.00 | 35 | 1018.9 |
| 20260503200321 | 64 | 216 | 0.0 | 2.0 | 0.00 | 0.00 | 0.00 | 33 | 1019.3 |
| 20260503195119 | 64 | 310 | 4.0 | 7.0 | 0.00 | 0.00 | 0.00 | 37 | 1019.6 |
| 20260503194527 | 64 | 8 | 0.0 | 2.0 | 0.00 | 0.00 | 0.00 | 31 | 1019.6 |
| 20260503193935 | 64 | 185 | 0.0 | 2.0 | 0.00 | 0.00 | 0.00 | 35 | 1019.9 |
| 20260503193341 | 63 | 291 | 0.0 | 0.0 | 0.00 | 0.00 | 0.00 | 42 | 1019.6 |
| 20260503192753 | 63 | 306 | 3.0 | 7.0 | 0.00 | 0.00 | 0.00 | 36 | 1019.9 |
| 20260503192120 | 63 | 256 | 4.0 | 5.0 | 0.00 | 0.00 | 0.00 | 36 | 1019.9 |
| 20260503190909 | 62 | 149 | 0.0 | 0.0 | 0.00 | 0.00 | 0.00 | 35 | 1019.9 |
| 20260503185750 | 62 | 216 | 0.0 | 0.0 | 0.00 | 0.00 | 0.00 | 36 | 1020.6 |
| 20260503185141 | 62 | 358 | 4.0 | 7.0 | 0.00 | 0.00 | 0.00 | 35 | 1020.6 |
| 20260503184540 | 62 | 335 | 3.0 | 5.0 | 0.00 | 0.00 | 0.00 | 37 | 1020.9 |
| 20260503183353 | 62 | 352 | 10.0 | 12.0 | 0.00 | 0.00 | 0.00 | 37 | 1020.9 |
| 20260503182749 | 62 | 197 | 0.0 | 2.0 | 0.00 | 0.00 | 0.00 | 36 | 1020.9 |
| 20260503182146 | 62 | 259 | 3.0 | 5.0 | 0.00 | 0.00 | 0.00 | 40 | 1020.9 |
| 20260503181545 | 61 | 266 | 0.0 | 0.0 | 0.00 | 0.00 | 0.00 | 44 | 1021.3 |
| 20260503180335 | 60 | 207 | 2.0 | 5.0 | 0.00 | 0.00 | 0.00 | 35 | 1021.3 |
| 20260503175731 | 60 | 175 | 0.0 | 0.0 | 0.00 | 0.00 | 0.00 | 43 | 1021.3 |
| 20260503175123 | 60 | 291 | 0.0 | 0.0 | 0.00 | 0.00 | 0.00 | 40 | 1021.3 |
| 20260503174550 | 59 | 337 | 5.0 | 7.0 | 0.00 | 0.00 | 0.00 | 38 | 1021.6 |
| 20260503173918 | 59 | 190 | 0.0 | 0.0 | 0.00 | 0.00 | 0.00 | 40 | 1021.6 |
| 20260503173309 | 59 | 228 | 5.0 | 7.0 | 0.00 | 0.00 | 0.00 | 43 | 1021.6 |
| 20260503172730 | 59 | 186 | 2.0 | 5.0 | 0.00 | 0.00 | 0.00 | 47 | 1021.6 |
| 20260503172124 | 58 | 231 | 0.0 | 0.0 | 0.00 | 0.00 | 0.00 | 38 | 1021.6 |
| 20260503171538 | 59 | 270 | 2.0 | 5.0 | 0.00 | 0.00 | 0.00 | 38 | 1022.0 |
| 20260503170935 | 58 | 225 | 5.0 | 7.0 | 0.00 | 0.00 | 0.00 | 41 | 1022.0 |
| 20260503170347 | 58 | 259 | 3.0 | 5.0 | 0.00 | 0.00 | 0.00 | 46 | 1022.0 |
| 20260503150929 | 55 | 124 | 0.0 | 0.0 | 0.00 | 0.00 | 0.00 | 47 | 1023.3 |
| 20260503150317 | 54 | 264 | 5.0 | 7.0 | 0.00 | 0.00 | 0.00 | 48 | 1023.3 |
| 20260503130953 | 45 | 197 | 0.0 | 0.0 | 0.00 | 0.00 | 0.00 | 67 | 1023.3 |
| 20260503110340 | 29 | 224 | 0.0 | 0.0 | 0.00 | 0.00 | 0.00 | 98 | 1022.3 |
| 20260503081547 | 31 | 224 | 0.0 | 0.0 | 0.00 | 0.00 | 0.00 | 97 | 1021.3 |
| 20260503080949 | 31 | 225 | 0.0 | 0.0 | 0.00 | 0.00 | 0.00 | 97 | 1021.3 |
| 20260503072739 | 32 | 224 | 0.0 | 0.0 | 0.00 | 0.00 | 0.00 | 97 | 1020.9 |
| 20260503072130 | 32 | 222 | 0.0 | 0.0 | 0.00 | 0.00 | 0.00 | 97 | 1020.9 |
| 20260503071549 | 32 | 224 | 0.0 | 0.0 | 0.00 | 0.00 | 0.00 | 97 | 1020.6 |
| 20260503070936 | 33 | 224 | 0.0 | 0.0 | 0.00 | 0.00 | 0.00 | 97 | 1020.6 |
| 20260503070324 | 33 | 224 | 0.0 | 0.0 | 0.00 | 0.00 | 0.00 | 97 | 1020.6 |